Volver al catálogo

KORSAT-2

ActivoCienciaVLEO
NORAD 62377·PAYLOAD·🇰🇷 South Korea

Lanzado Dec 21, 2024 desde Vandenberg Space Force Base

Loading…

Próximos Pases (próximas 24 horas)

TLE

ActualizadoSource: Space-Track

Época: Sep 14, 2026, 05:53 UTC

1 62377U 24247A   26257.24558645  .00002252  00000-0  20283-3 0  9994
2 62377  45.4116 326.1219 0002236 307.6880  52.3795 14.98769345 94928

Sigue KORSAT-2 en tiempo real con AllMySat

Download on the App Store